Radiation Dose at Monitoring Post of Fukushima Daini Nuclear Power Station
Date,Time,MP-1(microSv/h),MP-2(microSv/h),MP-3(microSv/h),MP-4(microSv/h),MP-5(microSv/h),MP-6(microSv/h),MP-7(microSv/h),Wind Direction,Wind Velocity(m/s),Rain
2016/09/26,00:00,0.378,0.230,0.397,0.367,0.356,0.187,0.159,northwest,0.8,No
2016/09/26,00:10,0.375,0.230,0.401,0.367,0.359,0.189,0.160,northwest,0.6,No
2016/09/26,00:20,0.379,0.231,0.400,0.369,0.360,0.188,0.159,northeast,1.0,No
2016/09/26,00:30,0.377,0.229,0.398,0.367,0.357,0.188,0.160,east-northeast,0.7,No
2016/09/26,00:40,0.378,0.232,0.402,0.370,0.361,0.189,0.162,north,1.0,No
2016/09/26,00:50,0.378,0.232,0.398,0.370,0.359,0.188,0.160,north,1.8,Yes
2016/09/26,01:00,0.378,0.231,0.401,0.367,0.357,0.189,0.159,north-northwest,2.0,Yes
2016/09/26,01:10,0.380,0.232,0.402,0.371,0.360,0.189,0.161,north,1.2,Yes
2016/09/26,01:20,0.379,0.231,0.399,0.369,0.360,0.189,0.160,-,CALM,Yes
2016/09/26,01:30,0.377,0.233,0.402,0.368,0.360,0.189,0.162,east-northeast,0.8,Yes
2016/09/26,01:40,0.381,0.232,0.401,0.371,0.362,0.189,0.161,-,CALM,Yes
2016/09/26,01:50,0.379,0.230,0.398,0.367,0.360,0.189,0.161,northeast,1.6,Yes
2016/09/26,02:00,0.379,0.232,0.403,0.372,0.361,0.190,0.161,north,1.4,Yes
2016/09/26,02:10,0.379,0.231,0.400,0.371,0.362,0.190,0.160,north-northeast,1.4,Yes
2016/09/26,02:20,0.376,0.231,0.401,0.367,0.360,0.191,0.161,north,3.9,Yes
2016/09/26,02:30,0.379,0.233,0.400,0.371,0.362,0.189,0.162,north,2.7,Yes
2016/09/26,02:40,0.380,0.230,0.400,0.366,0.359,0.189,0.160,north,2.6,Yes
2016/09/26,02:50,0.376,0.232,0.402,0.369,0.361,0.189,0.161,north-northwest,2.4,Yes
2016/09/26,03:00,0.380,0.232,0.401,0.371,0.361,0.188,0.160,northwest,2.2,No
2016/09/26,03:10,0.377,0.230,0.398,0.364,0.357,0.188,0.160,-,CALM,No
2016/09/26,03:20,0.375,0.231,0.403,0.369,0.361,0.187,0.160,northeast,0.9,No
2016/09/26,03:30,0.380,0.230,0.400,0.367,0.357,0.188,0.160,east-southeast,0.5,Yes
2016/09/26,03:40,0.378,0.231,0.400,0.367,0.359,0.188,0.160,south-southeast,0.7,Yes
2016/09/26,03:50,0.379,0.232,0.400,0.370,0.360,0.187,0.160,south-southeast,0.7,Yes
2016/09/26,04:00,0.378,0.230,0.397,0.366,0.356,0.187,0.160,-,CALM,No
2016/09/26,04:10,0.375,0.231,0.401,0.370,0.360,0.188,0.160,-,CALM,No
2016/09/26,04:20,0.379,0.231,0.401,0.368,0.359,0.188,0.160,north,0.5,Yes
2016/09/26,04:30,0.378,0.230,0.399,0.366,0.357,0.189,0.160,north-northeast,2.5,Yes
2016/09/26,04:40,0.377,0.231,0.401,0.370,0.360,0.188,0.160,north,3.3,Yes
2016/09/26,04:50,0.378,0.232,0.399,0.367,0.359,0.189,0.159,north,4.2,Yes
2016/09/26,05:00,0.376,0.231,0.398,0.368,0.358,0.189,0.159,north-northeast,3.8,Yes
2016/09/26,05:10,0.379,0.233,0.402,0.369,0.361,0.188,0.160,north,5.3,Yes
2016/09/26,05:20,0.378,0.230,0.398,0.366,0.359,0.189,0.160,north,5.7,No
2016/09/26,05:30,0.376,0.232,0.400,0.368,0.362,0.189,0.160,north,5.9,No
2016/09/26,05:40,0.379,0.231,0.399,0.368,0.360,0.188,0.160,north,5.5,No
2016/09/26,05:50,0.376,0.229,0.398,0.366,0.357,0.188,0.159,north,5.7,No
2016/09/26,06:00,0.376,0.232,0.402,0.369,0.360,0.187,0.159,north,5.8,Yes
2016/09/26,06:10,0.378,0.230,0.399,0.366,0.356,0.189,0.158,north-northwest,3.9,No
2016/09/26,06:20,0.376,0.230,0.396,0.369,0.361,0.188,0.159,north-northwest,2.8,Yes
2016/09/26,06:30,0.378,0.231,0.400,0.368,0.359,0.188,0.159,north,3.7,Yes
2016/09/26,06:40,0.376,0.229,0.396,0.365,0.357,0.188,0.159,north-northwest,2.0,No
2016/09/26,06:50,0.373,0.231,0.397,0.368,0.359,0.188,0.160,north,1.0,Yes
2016/09/26,07:00,0.378,0.230,0.400,0.367,0.358,0.187,0.159,north-northeast,0.8,Yes
2016/09/26,07:10,0.378,0.229,0.396,0.364,0.357,0.187,0.158,north-northeast,1.0,No
2016/09/26,07:20,0.374,0.230,0.399,0.368,0.358,0.188,0.158,-,CALM,Yes
2016/09/26,07:30,0.377,0.230,0.401,0.366,0.358,0.188,0.157,-,CALM,Yes
2016/09/26,07:40,0.376,0.228,0.396,0.365,0.357,0.187,0.159,-,CALM,No
2016/09/26,07:50,0.374,0.230,0.398,0.368,0.359,0.187,0.160,east-northeast,0.5,No
2016/09/26,08:00,0.379,0.231,0.400,0.366,0.355,0.188,0.158,northeast,0.6,No
2016/09/26,08:10,0.376,0.229,0.394,0.365,0.356,0.187,0.159,north,1.3,No
2016/09/26,08:20,0.374,0.231,0.399,0.369,0.361,0.187,0.159,north-northeast,1.9,No
2016/09/26,08:30,0.378,0.229,0.398,0.367,0.357,0.187,0.158,north-northeast,4.6,Yes
2016/09/26,08:40,0.377,0.229,0.395,0.367,0.357,0.187,0.158,north-northeast,4.6,Yes
2016/09/26,08:50,0.375,0.231,0.399,0.368,0.361,0.186,0.160,north,3.5,Yes
2016/09/26,09:00,0.379,0.230,0.401,0.366,0.359,0.189,0.158,north-northwest,3.3,No
2016/09/26,09:10,0.377,0.229,0.399,0.366,0.356,0.189,0.159,north,2.8,No
2016/09/26,09:20,0.376,0.232,0.398,0.369,0.359,0.187,0.161,north,5.1,No
2016/09/26,09:30,0.379,0.233,0.401,0.368,0.362,0.189,0.160,north,4.1,No
2016/09/26,09:40,0.380,0.231,0.400,0.366,0.360,0.189,0.159,north,3.9,No
2016/09/26,09:50,0.376,0.230,0.395,0.368,0.357,0.188,0.160,north,4.9,No
2016/09/26,10:00,0.376,0.231,0.399,0.370,0.359,0.188,0.160,north,3.9,Yes
2016/09/26,10:10,0.380,0.229,0.400,0.368,0.360,0.187,0.158,north,4.0,No
2016/09/26,10:20,0.378,0.229,0.397,0.365,0.358,0.188,0.158,north,2.7,Yes
2016/09/26,10:30,0.374,0.229,0.397,0.370,0.356,0.189,0.160,north,3.9,No
2016/09/26,10:40,0.380,0.232,0.401,0.368,0.363,0.187,0.159,north-northwest,3.6,No
2016/09/26,10:50,0.378,0.230,0.398,0.365,0.360,0.188,0.159,north-northwest,4.3,No
2016/09/26,11:00,0.377,0.229,0.396,0.366,0.358,0.188,0.158,north-northwest,3.9,No
2016/09/26,11:10,0.374,0.229,0.400,0.368,0.355,0.188,0.159,north,4.9,No
2016/09/26,11:20,0.381,0.230,0.401,0.366,0.362,0.187,0.159,north,4.1,No
2016/09/26,11:30,0.379,0.230,0.398,0.365,0.360,0.187,0.159,northeast,2.1,No
2016/09/26,11:40,0.377,0.228,0.396,0.364,0.358,0.189,0.159,northeast,3.1,No
2016/09/26,11:50,0.374,0.228,0.395,0.369,0.358,0.189,0.157,north-northeast,3.4,No
2016/09/26,12:00,0.377,0.229,0.395,0.368,0.357,0.188,0.158,north-northeast,3.6,No
2016/09/26,12:10,0.380,0.229,0.401,0.366,0.356,0.188,0.157,north-northeast,5.4,No
2016/09/26,12:20,0.379,0.230,0.400,0.364,0.355,0.186,0.158,north,4.8,No
2016/09/26,12:30,0.376,0.230,0.397,0.364,0.355,0.188,0.159,north,5.0,No
2016/09/26,12:40,0.374,0.230,0.397,0.364,0.362,0.188,0.159,north,5.8,No
2016/09/26,12:50,0.379,0.229,0.395,0.369,0.360,0.187,0.159,north,4.4,No
2016/09/26,13:00,0.378,0.228,0.401,0.368,0.359,0.189,0.158,north,3.4,No
2016/09/26,13:10,0.375,0.233,0.401,0.367,0.357,0.187,0.158,north,3.7,No
2016/09/26,13:20,0.376,0.231,0.399,0.365,0.356,0.187,0.159,north-northwest,4.2,No
2016/09/26,13:30,0.381,0.229,0.395,0.366,0.362,0.188,0.159,north-northwest,3.5,No
2016/09/26,13:40,0.379,0.228,0.398,0.371,0.361,0.187,0.158,north-northwest,3.1,No
2016/09/26,13:50,0.377,0.229,0.402,0.369,0.358,0.189,0.159,north-northwest,3.0,No
2016/09/26,14:00,0.374,0.231,0.399,0.366,0.356,0.189,0.157,north,1.2,No
2016/09/26,14:10,0.380,0.230,0.396,0.364,0.356,0.188,0.158,north-northwest,1.6,No
2016/09/26,14:20,0.378,0.228,0.396,0.368,0.361,0.188,0.160,north-northwest,1.4,Yes
2016/09/26,14:30,0.376,0.229,0.401,0.369,0.361,0.186,0.159,north,2.2,Yes
2016/09/26,14:40,0.375,0.229,0.402,0.366,0.358,0.188,0.159,north,2.2,Yes
2016/09/26,14:50,0.379,0.228,0.398,0.365,0.355,0.188,0.158,north,3.2,Yes
2016/09/26,15:00,0.380,0.228,0.396,0.369,0.359,0.187,0.159,north,3.8,Yes
2016/09/26,15:10,0.376,0.228,0.401,0.367,0.359,0.189,0.159,north,2.9,Yes
2016/09/26,15:20,0.377,0.230,0.398,0.365,0.357,0.188,0.158,north,3.1,Yes
2016/09/26,15:30,0.381,0.229,0.397,0.369,0.359,0.188,0.159,north,3.5,Yes
2016/09/26,15:40,0.379,0.230,0.401,0.370,0.361,0.189,0.160,north,3.1,Yes
2016/09/26,15:50,0.376,0.231,0.401,0.367,0.358,0.189,0.160,north,3.3,Yes
2016/09/26,16:00,0.382,0.230,0.396,0.369,0.360,0.188,0.160,north,2.4,Yes
2016/09/26,16:10,0.379,0.231,0.401,0.369,0.363,0.189,0.161,north-northwest,2.0,Yes
2016/09/26,16:20,0.378,0.233,0.399,0.365,0.357,0.189,0.159,north-northwest,2.2,Yes
2016/09/26,16:30,0.381,0.230,0.396,0.368,0.358,0.188,0.160,north-northwest,2.1,Yes
2016/09/26,16:40,0.378,0.231,0.402,0.368,0.361,0.190,0.160,north-northwest,1.7,Yes
2016/09/26,16:50,0.377,0.232,0.401,0.365,0.358,0.190,0.161,north,2.2,Yes
2016/09/26,17:00,0.380,0.230,0.396,0.367,0.358,0.187,0.160,north,2.2,No
2016/09/26,17:10,0.377,0.230,0.400,0.367,0.359,0.189,0.159,north,1.9,No
2016/09/26,17:20,0.377,0.232,0.400,0.363,0.356,0.187,0.159,north,2.5,Yes
2016/09/26,17:30,0.378,0.230,0.396,0.368,0.359,0.187,0.160,north,2.2,Yes
2016/09/26,17:40,0.376,0.230,0.400,0.367,0.358,0.188,0.159,north-northwest,3.6,Yes
2016/09/26,17:50,0.377,0.230,0.398,0.364,0.357,0.188,0.159,north,3.3,Yes
2016/09/26,18:00,0.378,0.229,0.397,0.368,0.361,0.187,0.160,north,4.9,Yes
2016/09/26,18:10,0.375,0.232,0.400,0.366,0.358,0.188,0.159,north-northwest,3.5,Yes
2016/09/26,18:20,0.377,0.230,0.397,0.365,0.357,0.187,0.159,north-northwest,4.2,Yes
2016/09/26,18:30,0.379,0.229,0.396,0.368,0.359,0.188,0.160,north,4.2,No
2016/09/26,18:40,0.374,0.230,0.400,0.364,0.357,0.187,0.158,north,3.6,No
2016/09/26,18:50,0.377,0.229,0.395,0.367,0.360,0.187,0.159,north-northwest,3.1,No
2016/09/26,19:00,0.376,0.230,0.398,0.364,0.359,0.187,0.158,north-northwest,2.2,No
2016/09/26,19:10,0.375,0.229,0.398,0.364,0.356,0.185,0.158,north-northwest,1.9,Yes
2016/09/26,19:20,0.377,0.227,0.394,0.367,0.359,0.186,0.159,north-northwest,1.5,No
2016/09/26,19:30,0.374,0.229,0.398,0.363,0.354,0.187,0.158,north-northwest,0.8,No
2016/09/26,19:40,0.376,0.229,0.396,0.365,0.357,0.186,0.158,northwest,1.4,No
2016/09/26,19:50,0.377,0.229,0.395,0.365,0.357,0.186,0.157,northwest,1.4,No
2016/09/26,20:00,0.372,0.230,0.399,0.363,0.356,0.187,0.157,northwest,2.0,No
2016/09/26,20:10,0.376,0.227,0.394,0.365,0.358,0.186,0.157,west-northwest,1.4,No
2016/09/26,20:20,0.375,0.229,0.396,0.363,0.356,0.186,0.157,-,CALM,No
2016/09/26,20:30,0.373,0.228,0.397,0.365,0.355,0.185,0.159,-,CALM,No
2016/09/26,20:40,0.375,0.228,0.394,0.365,0.358,0.187,0.158,south-southwest,0.7,No
2016/09/26,20:50,0.373,0.229,0.399,0.363,0.353,0.186,0.157,south,1.4,No
2016/09/26,21:00,0.377,0.228,0.396,0.366,0.359,0.186,0.158,south,1.0,No
2016/09/26,21:10,0.375,0.229,0.395,0.365,0.357,0.186,0.157,south-southwest,1.6,Yes
2016/09/26,21:20,0.374,0.228,0.399,0.362,0.356,0.186,0.157,south-southwest,1.9,Yes
2016/09/26,21:30,0.377,0.228,0.394,0.366,0.360,0.187,0.158,south,1.7,Yes
2016/09/26,21:40,0.374,0.230,0.397,0.363,0.355,0.187,0.157,south-southwest,1.3,Yes
2016/09/26,21:50,0.375,0.228,0.397,0.365,0.357,0.186,0.158,south-southwest,1.4,Yes
2016/09/26,22:00,0.376,0.229,0.395,0.366,0.359,0.187,0.157,south-southwest,1.0,No
2016/09/26,22:10,0.374,0.228,0.399,0.364,0.355,0.186,0.158,south-southwest,1.2,Yes
2016/09/26,22:20,0.378,0.229,0.396,0.368,0.360,0.187,0.158,southwest,0.9,Yes
2016/09/26,22:30,0.375,0.229,0.398,0.364,0.357,0.188,0.158,west-southwest,1.5,Yes
2016/09/26,22:40,0.375,0.229,0.399,0.366,0.356,0.186,0.158,south-southwest,1.0,Yes
2016/09/26,22:50,0.377,0.230,0.396,0.366,0.359,0.187,0.158,southwest,0.6,Yes
2016/09/26,23:00,0.374,0.229,0.399,0.364,0.354,0.187,0.158,southwest,0.7,Yes
2016/09/26,23:10,0.376,0.227,0.398,0.367,0.359,0.187,0.158,south-southwest,0.7,Yes
2016/09/26,23:20,0.376,0.229,0.397,0.364,0.357,0.186,0.156,south-southwest,1.6,No
2016/09/26,23:30,0.376,0.228,0.399,0.365,0.356,0.187,0.159,south-southwest,1.7,No
2016/09/26,23:40,0.376,0.230,0.395,0.367,0.358,0.188,0.157,south-southwest,1.7,Yes
2016/09/26,23:50,0.375,0.230,0.398,0.364,0.356,0.188,0.157,south-southwest,1.4,Yes
